<?xml version="1.0"?>
<gpx xmlns="http://www.topografix.com/GPX/1/1" xmlns:xsi="http://www.w3.org/2001/XMLSchema-instance" version="1.1" creator="GPX RubyGem 1.0.0 -- http://dougfales.github.io/gpx/" xsi:schemaLocation="http://www.topografix.com/GPX/1/1 http://www.topografix.com/GPX/1/1/gpx.xsd">
  <metadata>
    <name/>
    <time>2026-05-09T21:44:28+00:00</time>
    <bound minlat="90.0" minlon="180.0" maxlat="-90.0" maxlon="-180.0"/>
  </metadata>
  <trk>
    <name/>
    <trkseg>
      <trkpt lat="50.564421" lon="7.976334">
        <time>1970-01-01T00:00:00+00:00</time>
        <ele>377.0</ele>
      </trkpt>
      <trkpt lat="50.564462" lon="7.976501">
        <time>1970-01-01T00:00:00+00:00</time>
        <ele>379.0</ele>
      </trkpt>
      <trkpt lat="50.564534" lon="7.976681">
        <time>1970-01-01T00:00:00+00:00</time>
        <ele>381.0</ele>
      </trkpt>
      <trkpt lat="50.564643" lon="7.976785">
        <time>1970-01-01T00:00:00+00:00</time>
        <ele>382.0</ele>
      </trkpt>
      <trkpt lat="50.564833" lon="7.976801">
        <time>1970-01-01T00:00:00+00:00</time>
        <ele>382.0</ele>
      </trkpt>
      <trkpt lat="50.564818" lon="7.976922">
        <time>1970-01-01T00:00:00+00:00</time>
        <ele>383.0</ele>
      </trkpt>
      <trkpt lat="50.564838" lon="7.97705">
        <time>1970-01-01T00:00:00+00:00</time>
        <ele>384.0</ele>
      </trkpt>
      <trkpt lat="50.564898" lon="7.977402">
        <time>1970-01-01T00:00:00+00:00</time>
        <ele>390.0</ele>
      </trkpt>
      <trkpt lat="50.565276" lon="7.977381">
        <time>1970-01-01T00:00:00+00:00</time>
        <ele>389.0</ele>
      </trkpt>
      <trkpt lat="50.565433" lon="7.977608">
        <time>1970-01-01T00:00:00+00:00</time>
        <ele>395.0</ele>
      </trkpt>
      <trkpt lat="50.565282" lon="7.977892">
        <time>1970-01-01T00:00:00+00:00</time>
        <ele>400.0</ele>
      </trkpt>
      <trkpt lat="50.565126" lon="7.978921">
        <time>1970-01-01T00:00:00+00:00</time>
        <ele>415.0</ele>
      </trkpt>
      <trkpt lat="50.564792" lon="7.979733">
        <time>1970-01-01T00:00:00+00:00</time>
        <ele>427.0</ele>
      </trkpt>
      <trkpt lat="50.564699" lon="7.980017">
        <time>1970-01-01T00:00:00+00:00</time>
        <ele>427.0</ele>
      </trkpt>
      <trkpt lat="50.564522" lon="7.981615">
        <time>1970-01-01T00:00:00+00:00</time>
        <ele>421.0</ele>
      </trkpt>
      <trkpt lat="50.564488" lon="7.982248">
        <time>1970-01-01T00:00:00+00:00</time>
        <ele>424.0</ele>
      </trkpt>
      <trkpt lat="50.564392" lon="7.982484">
        <time>1970-01-01T00:00:00+00:00</time>
        <ele>417.0</ele>
      </trkpt>
      <trkpt lat="50.56413" lon="7.983247">
        <time>1970-01-01T00:00:00+00:00</time>
        <ele>411.0</ele>
      </trkpt>
      <trkpt lat="50.56413" lon="7.983247">
        <time>1970-01-01T00:00:00+00:00</time>
        <ele>411.0</ele>
      </trkpt>
      <trkpt lat="50.564392" lon="7.982484">
        <time>1970-01-01T00:00:00+00:00</time>
        <ele>417.0</ele>
      </trkpt>
      <trkpt lat="50.564488" lon="7.982248">
        <time>1970-01-01T00:00:00+00:00</time>
        <ele>424.0</ele>
      </trkpt>
      <trkpt lat="50.564522" lon="7.981615">
        <time>1970-01-01T00:00:00+00:00</time>
        <ele>421.0</ele>
      </trkpt>
      <trkpt lat="50.564699" lon="7.980017">
        <time>1970-01-01T00:00:00+00:00</time>
        <ele>427.0</ele>
      </trkpt>
      <trkpt lat="50.564792" lon="7.979733">
        <time>1970-01-01T00:00:00+00:00</time>
        <ele>427.0</ele>
      </trkpt>
      <trkpt lat="50.565126" lon="7.978921">
        <time>1970-01-01T00:00:00+00:00</time>
        <ele>415.0</ele>
      </trkpt>
      <trkpt lat="50.565282" lon="7.977892">
        <time>1970-01-01T00:00:00+00:00</time>
        <ele>400.0</ele>
      </trkpt>
      <trkpt lat="50.565433" lon="7.977608">
        <time>1970-01-01T00:00:00+00:00</time>
        <ele>395.0</ele>
      </trkpt>
      <trkpt lat="50.565276" lon="7.977381">
        <time>1970-01-01T00:00:00+00:00</time>
        <ele>389.0</ele>
      </trkpt>
      <trkpt lat="50.564898" lon="7.977402">
        <time>1970-01-01T00:00:00+00:00</time>
        <ele>390.0</ele>
      </trkpt>
      <trkpt lat="50.564838" lon="7.97705">
        <time>1970-01-01T00:00:00+00:00</time>
        <ele>384.0</ele>
      </trkpt>
      <trkpt lat="50.564818" lon="7.976922">
        <time>1970-01-01T00:00:00+00:00</time>
        <ele>383.0</ele>
      </trkpt>
      <trkpt lat="50.564833" lon="7.976801">
        <time>1970-01-01T00:00:00+00:00</time>
        <ele>382.0</ele>
      </trkpt>
      <trkpt lat="50.564643" lon="7.976785">
        <time>1970-01-01T00:00:00+00:00</time>
        <ele>382.0</ele>
      </trkpt>
      <trkpt lat="50.564534" lon="7.976681">
        <time>1970-01-01T00:00:00+00:00</time>
        <ele>381.0</ele>
      </trkpt>
      <trkpt lat="50.564462" lon="7.976501">
        <time>1970-01-01T00:00:00+00:00</time>
        <ele>379.0</ele>
      </trkpt>
      <trkpt lat="50.564421" lon="7.976334">
        <time>1970-01-01T00:00:00+00:00</time>
        <ele>377.0</ele>
      </trkpt>
    </trkseg>
  </trk>
</gpx>
